Tracking 17149 objects as of 22-May-2015
HD Live streaming from Space Station

GLOBALSTAR M048

Track GLOBALSTAR M048 now!
10-day predictions
GLOBALSTAR M048 is classified as:


NORAD ID: 25872
Int'l Code: 1999-041A
Perigee: 1,987.6 km
Apogee: 2,009.8 km
Inclination: 51.9 °
Period: 127.0 minutes
Semi major axis: 8369 km
RCS: 2.5743 m2 (large)
Launch date: July 25, 1999
Source: Globalstar (GLOB)
Your satellite tracking list
Your tracking list is empty





NASA's NSSDC Master Catalog

Two Line Element Set (TLE):
1 25872U 99041A   15139.13498102 -.00000082  00000-0 -32310-3 0  9998
2 25872 051.9373 075.5479 0013290 290.7572 170.4853 11.33801990707207

Source of the keplerian elements: AFSPC

N2YO: 366